Regional Weather Roundup
Issued by NWS Jackson, KY

Home | Current Version | Previous Version | Text Only | Print | Product List | Glossary On
Versions: 1 2 3 4 5 6 7 8 9 10 11 12 13 14 15 16 17 18 19 20 21 22 23 24 25 26 27 28 29 30 31 32 33 34 35 36 37 38 39 40 41 42 43 44 45 46 47 48 49 50
000
ASUS43 KJKL 200719
RWRJKL

EAST KENTUCKY HOURLY WEATHER ROUNDUP
NATIONAL WEATHER SERVICE JACKSON KY
200 AM EST SAT DEC 20 2014

NOTE: "FAIR" INDICATES FEW OR NO CLOUDS BELOW 12,000 FEET WITH
NO SIGNIFICANT WEATHER AND/OR OBSTRUCTIONS TO VISIBILITY.

* THESE REPORTS ARE NOT UNDER NWS QUALITY CONTROL AND MAY NOT
  REPORT WEATHER SUCH AS PRECIPITATION AND FOG.

KYZ079-080-083-085-087-088-110-112-115-119-120-200800
...EASTERN KENTUCKY...

CITY           SKY/WX    TMP DP  RH WIND       PRES   REMARKS
JACKSON        MOCLDY    27  21  78 VRB3      30.18F
LONDON         CLOUDY    30  23  75 N6        30.19F WCI  24
SOMERSET*      CLOUDY    30  25  80 NE3       30.22F
MONTICELLO*    CLOUDY    31  26  81 NE6       30.22F WCI  25
MIDDLESBORO*   CLOUDY    32  29  89 CALM      30.18R
HARLAN APT*    CLOUDY    32  28  86 NE6       30.16S WCI  26
HAZARD APT*    SUNNY     30  25  80 CALM      30.19F
BLACK MTN*       N/A     32  27  80 S6          N/A  WCI  26
PIKEVILLE APT* CLEAR     27  23  86 NE5       30.18F WCI  21
BIG SANDY*     CLOUDY    26  23  89 NE6       30.20F WCI  19
MOREHEAD APT*  CLOUDY    27  21  80 CALM      30.25S
ASHLAND*       CLOUDY    30  19  64 CALM      30.26R
$$

KYZ035-036-041-042-044-050-067-078-099-200800
...CENTRAL KENTUCKY...

CITY           SKY/WX    TMP DP  RH WIND       PRES   REMARKS
MT STERLING*   CLOUDY    27  23  86 E3        30.25R
FLEMING/MASON* CLOUDY    25  23  93 CALM      30.27R
DANVILLE*      CLOUDY    28  23  80 CALM      30.25R
RICHMOND*      CLOUDY    27  23  86 CALM      30.22F
LEXINGTON      CLOUDY    28  22  78 NE3       30.24S
FRANKFORT      CLOUDY    27  22  81 N3        30.26R
$$

KYZ091>093-OHZ055-061-077-WVZ005-015-034-035-042-200800
...SOUTHERN OHIO/WEST VIRGINIA...

CITY           SKY/WX    TMP DP  RH WIND       PRES   REMARKS
COVINGTON      CLOUDY    30  21  69 SE6       30.25S WCI  24
COLUMBUS       CLOUDY    29  22  75 CALM      30.25F
DAYTON         CLOUDY    30  22  72 E3        30.26S
WILMINGTON     CLOUDY    28  22  78 E5        30.25R WCI  23
HUNTINGTON     CLOUDY    28  22  78 CALM      30.24F
CHARLESTON     CLOUDY    30  22  72 CALM      30.24S
PINEVILLE*     MOCLDY    29  27  93 MISG      30.23F
BECKLEY        MOCLDY    23  19  85 SE3       30.15S
BLUEFIELD      PTCLDY    26  22  84 E3        30.13F
$$

VAZ002-007-008-TNZ017-027-036-066-071-200800
...SOUTHWEST VIRGINIA/EAST TENNESSEE...

CITY           SKY/WX    TMP DP  RH WIND       PRES   REMARKS
WISE*          CLOUDY    30  27  86 NE3       30.11F
JONESVILLE*    CLOUDY    32  28  86 CALM      30.17F
ABINGDON*      CLOUDY    33  28  80 E7        30.11F WCI  27
BRISTOL        CLOUDY    33  27  78 CALM      30.14F
KNOXVILLE      CLOUDY    38  29  70 CALM      30.14F
OAK RIDGE      CLOUDY    39  28  64 CALM      30.15F
CROSSVILLE     CLOUDY    34  26  72 NW5       30.15S WCI  30
NASHVILLE      CLOUDY    37  28  70 N6        30.22S WCI  32
$$

...KEY TO REMARKS...
VSB - VISIBILITY IN MILES
WCI - WIND CHILL INDEX
HX  - HEAT INDEX

$$


USA.gov is the U.S. government's official web portal to all federal, state and local government web resources and services.